Flag for Norway Weather past 2 weeks in Hammerfest, Norway

Now
18 °F

Cold.


Feels Like: 9 °F
Forecast: 19 / 21 °F
Wind: 6 mph from Northeast

Location: Hammerfest

Current Time: Feb 1, 2015 at 12:35:09 AM

Latest Report: Jan 31, 2015 at 11:50 PM


Visibility: N/A

Pressure: 29.74 "Hg

Humidity: 58%

Dew point: 5 °F

Location of HammerfestLocation

Historic Weather in Hammerfest — Graph

°F

Hammerfest temperature yesterday

Maximum temperature yesterday: 23 °F (at 6:50 AM)
Minimum temperature yesterday: 18 °F (at 12:50 AM)
Average temperature yesterday: 20 °F

Past Weeks' High & Low Weather Summary

 TemperatureHumidityPressure
High36 °F (Jan 26, 1:50 AM)100% (Jan 17, 2:50 PM)30.33 "Hg (Jan 17, 2:50 PM)
Low10 °F (Jan 23, 6:50 AM)30% (Jan 23, 9:50 PM)28.94 "Hg (Jan 16, 10:50 PM)
Average24 °F73%29.67 "Hg
* Reported Jan 16 10:50 PM — Jan 31 10:50 PM, Hammerfest, Weather by CustomWeather, © 2014

Note: Actual official high and low records may vary slightly from our data, if they occured in-between our weather recording intervals... More about our weather records

Advertising

Hammerfest weather history for previous 24 hours

 ConditionsComfort  
Time TempWeatherWind HumidityBarometerVisibility
10:50 PM
Jan 31
18 °FClear.9 mph58%29.74 "Hg10 mi
9:50 PM18 °FClear.8 mph62%29.74 "Hg10 mi
8:50 PM18 °FClear.12 mph62%29.71 "Hg10 mi
7:50 PM18 °FPassing clouds.8 mph62%29.71 "HgN/A
6:50 PM18 °FPassing clouds.8 mph62%29.71 "HgN/A
5:50 PM18 °FClear.8 mph62%29.68 "HgN/A
4:50 PM19 °FClear.7 mph58%29.68 "Hg10 mi
3:50 PM21 °FClear.9 mph54%29.68 "Hg10 mi
2:50 PM21 °FClear.12 mph58%29.65 "Hg10 mi
1:50 PM21 °FClear.9 mph58%29.65 "Hg10 mi
12:50 PM21 °FPassing clouds.6 mph58%29.62 "HgN/A
11:50 AM23 °FSunny.15 mph54%29.62 "Hg10 mi
10:50 AM23 °FPassing clouds.18 mph54%29.59 "HgN/A
9:50 AM23 °FPassing clouds.17 mph54%29.56 "HgN/A
8:50 AM23 °FClear.16 mph58%29.53 "Hg10 mi
7:50 AM21 °FClear.15 mph63%29.50 "Hg10 mi
6:50 AM23 °FPassing clouds.18 mph63%29.50 "HgN/A
5:50 AM21 °FClear.16 mph63%29.47 "Hg10 mi
4:50 AM21 °FPassing clouds.13 mph74%29.47 "HgN/A
3:50 AM21 °FPassing clouds.12 mph68%29.47 "HgN/A
2:50 AM19 °FPassing clouds.9 mph79%29.47 "HgN/A
1:50 AM18 °FClear.8 mph86%29.45 "Hg10 mi
12:50 AM18 °FPassing clouds.7 mph79%29.45 "HgN/A
Weather by CustomWeather, © 2014

See weather overviewHow to use our weather pages